#timestamp,LO_Frequency,Hit,StdDev 
1583751975.5,286046996.5,P
1583751995.3,286046998.0,N
1583752015.2,286046999.2,N
1583752035.9,286046999.0,N
1583752055.7,286046999.0,N
1583752075.6,286046999.5,N
1583752095.4,286046996.9,N
1583752115.2,286046996.8,N
1583752135.1,286046999.1,N
1583752136.0,286046999.1,N
1583752155.8,286046999.5,N
1583752175.7,286046998.4,N
1583752195.5,286046999.6,N
1583752215.3,286046998.2,N
1583752235.2,286046999.1,N
1583752255.0,286046999.6,N
1583752255.9,286046999.6,N
1583752275.7,286046999.5,N
1583752295.6,286046996.6,N
1583752315.4,286046999.6,N
1583752335.3,286047001.1,N
1583752355.1,286046998.4,N
1583752356.0,286046998.4,N
1583752375.8,286047001.2,N
1583752395.7,286046996.5,N
1583752415.5,286046997.3,N
1583752435.4,286046997.6,N
1583752455.2,286046997.5,N
1583752475.0,286046997.0,N
1583752475.9,286046997.0,N
1583752495.8,286046997.4,N
1583752515.6,286046998.0,N
1583752535.4,286046996.8,N
1583752555.3,286046997.9,N
1583752575.1,286046997.1,N
1583752595.9,286046997.7,N
1583752615.7,286046998.0,N
1583752635.5,286046996.2,Y
1583752655.4,286046996.7,P
1583752675.2,286046996.6,P
1583752695.0,286046997.2,P
1583752696.0,286046997.2,Y
1583752715.8,286047000.6,P
1583752735.6,286047000.2,N
1583752755.5,286047002.4,N
1583752775.3,286047002.1,N
1583752795.1,286047002.4,N
1583752815.9,286047002.4,N
1583752835.7,286047003.9,N
1583752855.6,286047003.9,N
1583752875.4,286047005.5,N
1583752895.2,286047004.2,N
1583752915.1,286047001.6,N
1583752916.0,286047001.6,N
1583752935.8,286047002.8,N
1583752955.6,286047000.3,N
1583752975.5,286047000.6,N
1583752995.3,286046999.8,N
1583753015.2,286047000.4,N
1583753035.9,286046998.8,N
1583753055.7,286047001.2,N
1583753075.6,286046998.3,N
1583753095.4,286046998.2,N
1583753115.3,286047000.8,N
1583753135.1,286046998.6,N
1583753136.0,286046998.6,N
1583753155.8,286047002.8,N
1583753175.7,286047002.4,N
1583753195.5,286047002.4,N
1583753215.3,286047004.4,N
1583753235.2,286047001.5,N
1583753255.0,286046999.8,N
1583753255.9,286046999.8,N
1583753275.8,286047001.0,N
1583753295.6,286046998.1,N
1583753315.4,286047001.2,N
1583753335.3,286046998.3,N
1583753355.1,286046996.9,N
1583753375.9,286046999.4,N
1583753395.7,286047001.2,N
1583753415.5,286046999.1,N
1583753435.4,286046998.3,N
1583753455.2,286046998.1,N
1583753475.0,286047000.6,N
1583753475.9,286047000.6,N
1583753495.8,286047001.8,N
1583753515.6,286047001.4,N
1583753535.5,286047004.1,N
1583753555.3,286047003.6,N
1583753575.1,286047003.9,N
1583753595.9,286047002.5,N
1583753615.7,286047000.5,N
1583753635.5,286046998.5,N
1583753655.4,286046998.1,N
1583753675.2,286046998.4,N
1583753695.1,286046998.7,N
1583753696.0,286046998.7,N
1583753715.8,286046998.3,N
1583753735.6,286046996.5,N
1583753755.5,286047001.1,N
1583753775.3,286047000.8,N
1583753795.2,286047000.0,N
1583753815.9,286047000.9,N
1583753835.7,286047000.2,N
1583753855.6,286047000.1,N
1583753875.4,286047000.1,N
1583753895.2,286047001.9,N
1583753915.1,286047000.0,N
1583753916.0,286047000.0,N
1583753935.8,286047000.0,N
1583753955.7,286047000.9,N
1583753975.5,286046998.6,N
1583753995.3,286046998.2,N
1583754015.2,286046998.1,N
1583754035.0,286046998.7,N
1583754035.9,286046998.7,N
1583754055.8,286046998.2,N
1583754075.6,286047001.1,N
1583754095.4,286046999.8,N
1583754115.3,286047001.1,N
1583754135.1,286046999.9,N
1583754155.8,286047001.9,N
1583754175.7,286047003.2,N
1583754195.5,286047001.8,N
1583754215.4,286046999.8,N
1583754235.2,286047000.6,N
1583754255.0,286046998.6,N
1583754255.9,286046998.6,N
1583754275.8,286046999.0,N
1583754295.6,286046997.1,N
1583754315.5,286046994.9,Y
1583754335.3,286046999.5,P
1583754355.1,286046997.5,P
1583754375.9,286046995.0,P
1583754395.7,286046995.5,N
1583754415.5,286046995.1,N
1583754435.4,286046994.0,N
1583754455.2,286046994.3,N
1583754475.1,286046992.9,Y
1583754476.0,286046992.9,P
1583754495.8,286046995.3,N
1583754515.6,286046996.3,N
1583754535.5,286046993.9,Y
1583754555.3,286046998.6,P
1583754575.2,286047001.1,N
1583754595.9,286047000.1,N
1583754615.7,286046999.7,N
1583754635.6,286047002.7,N
1583754655.4,286047002.6,N
1583754675.3,286047000.9,N
1583754695